Location: Earls Croome
(52.0667°N, 2.2000°W)
Time: 02:53:53
(UTC+00:00)

STARLINK-60 - Pass Details

Date: 17 November 2019
Orbit: 417 x 425 km, 53.0° (Epoch: 05 December)

Event Time Altitude Azimuth Distance (km) Brightness Sun altitude
Exits shadow 05:50:20 36° 284° (WNW) 688 3.6 -15.3°
Maximum altitude 05:51:34 73° 360° (N) 441 3.0 -15.1°
Drops below altitude 10° 05:54:56 10° 86° (E) 1,499 7.1 -14.6°
Sets 05:57:02 0° 89° (E) 2,363 8.5 -14.3°
